Courtland, AL

4:09 AM CDT on August 23, 2017 (GMT -0500)
Courtland

Weather History for K9A4 - June, 2013

Change the Weather History Date:

Friday, June 7, 2013

  Actual Average (KMSL) Record (KMSL)
Temperature  
Mean Temperature 71 °F -  
Max Temperature 78 °F 86 °F 99 °F (1933)
Min Temperature 64 °F 63 °F 47 °F (1894)
Cooling Degree Days 6    
Growing Degree Days 21 (Base 50)    
Moisture  
Dew Point 67 °F    
Average Humidity 93    
Maximum Humidity 100    
Minimum Humidity 57    
Precipitation  
Precipitation 0.00 in - - ()
Sea Level Pressure  
Sea Level Pressure 29.83 in    
Wind  
Wind Speed 3 mph (NW)    
Max Wind Speed 10 mph    
Max Gust Speed 26 mph    
Visibility 6 miles    
Events Rain    
Averages and records for this station are not official NWS values.
T = Trace of Precipitation, MM = Missing Value Source: NWS Daily Summary

Daily Weather History Graph

Daily Weather History Graph

Search for Another Location

Airport or City:

Trip Planner

Search our weather history database for the weather conditions in past years. The results will help you decide how hot, cold, wet, or windy it might be!

Date:

Astronomy

Jun. 07, 2013 Rise Set
Actual Time 5:36 AM CDT 8:00 PM CDT
Civil Twilight 5:06 AM CDT 8:30 PM CDT
Nautical Twilight 4:30 AM CDT 9:06 PM CDT
Astronomical Twilight 3:51 AM CDT 9:45 PM CDT
Moon 4:55 AM CDT (6/7) 7:16 PM CDT (6/7)
Length of Visible Light 15h 23m
Length of Day
14h 24m
Waning Crescent, 1% of the Moon is Illuminated
Jun 7
Waning Crescent
Jun 8
New
Jun 16
First Quarter
Jun 23
Full
Jun 29
Last Quarter

Hourly Weather History & Observations

Time (CDT) Temp. Dew Point Humidity Pressure Visibility Wind Dir Wind Speed Gust Speed Precip Events Conditions
12:15 AM 68.0 °F 68.0 °F 100% 29.79 in 7.0 mi Calm Calm - N/A   Clear
12:35 AM 68.0 °F 68.0 °F 100% 29.80 in 7.0 mi WNW 4.6 mph - N/A   Clear
12:55 AM 68.0 °F 68.0 °F 100% 29.80 in 7.0 mi Calm Calm - N/A   Clear
1:15 AM 68.0 °F 68.0 °F 100% 29.79 in 7.0 mi Calm Calm - N/A   Clear
1:35 AM 68.0 °F 68.0 °F 100% 29.79 in 7.0 mi NNW 4.6 mph - N/A   Scattered Clouds
1:55 AM 68.0 °F 68.0 °F 100% 29.79 in 7.0 mi WNW 3.5 mph - N/A   Scattered Clouds
2:15 AM 68.0 °F 68.0 °F 100% 29.78 in 7.0 mi Calm Calm - N/A   Clear
2:35 AM 68.0 °F 68.0 °F 100% 29.78 in 7.0 mi NNW 4.6 mph - N/A   Clear
2:55 AM 68.0 °F 68.0 °F 100% 29.77 in 5.0 mi NNW 5.8 mph - N/A   Clear
3:15 AM 68.0 °F 68.0 °F 100% 29.76 in 5.0 mi NNW 3.5 mph - N/A   Clear
3:35 AM 68.0 °F 68.0 °F 100% 29.76 in 5.0 mi NNW 3.5 mph - N/A   Clear
3:55 AM 68.0 °F 68.0 °F 100% 29.76 in 7.0 mi Calm Calm - N/A   Clear
4:15 AM 68.0 °F 68.0 °F 100% 29.76 in 5.0 mi Calm Calm - N/A   Clear
4:35 AM 68.0 °F 68.0 °F 100% 29.76 in 7.0 mi Calm Calm - N/A   Clear
4:55 AM 68.0 °F 68.0 °F 100% 29.77 in 5.0 mi Calm Calm - N/A   Clear
5:15 AM 66.2 °F 66.2 °F 100% 29.78 in 5.0 mi West 4.6 mph - N/A   Clear
5:35 AM 66.2 °F 66.2 °F 100% 29.78 in 5.0 mi NW 3.5 mph - N/A   Clear
5:55 AM 66.2 °F 66.2 °F 100% 29.78 in 4.0 mi Calm Calm - N/A   Scattered Clouds
6:15 AM 68.0 °F 68.0 °F 100% 29.79 in 5.0 mi Calm Calm - N/A   Scattered Clouds
6:35 AM 68.0 °F 68.0 °F 100% 29.80 in 5.0 mi WNW 3.5 mph - N/A   Scattered Clouds
6:55 AM 68.0 °F 68.0 °F 100% 29.80 in 5.0 mi NW 4.6 mph - N/A   Mostly Cloudy
7:15 AM 68.0 °F 68.0 °F 100% 29.80 in 5.0 mi NW 3.5 mph - N/A   Overcast
7:35 AM 68.0 °F 68.0 °F 100% 29.81 in 5.0 mi NW 3.5 mph - N/A   Overcast
7:55 AM 68.0 °F 68.0 °F 100% 29.82 in 7.0 mi NW 4.6 mph - N/A   Overcast
8:15 AM 69.8 °F 68.0 °F 94% 29.82 in 7.0 mi NW 3.5 mph - N/A   Mostly Cloudy
8:35 AM 69.8 °F 68.0 °F 94% 29.83 in 7.0 mi NW 5.8 mph - N/A   Mostly Cloudy
8:55 AM 69.8 °F 68.0 °F 94% 29.83 in 7.0 mi NW 5.8 mph - N/A Rain Light Rain
9:15 AM 69.8 °F 68.0 °F 94% 29.84 in 7.0 mi NNW 8.1 mph - N/A   Mostly Cloudy
9:35 AM 69.8 °F 68.0 °F 94% 29.84 in 7.0 mi NNW 5.8 mph - N/A Rain Light Rain
9:55 AM 69.8 °F 69.8 °F 100% 29.85 in 7.0 mi WNW 6.9 mph - N/A Rain Light Rain
10:15 AM 69.8 °F 69.8 °F 100% 29.85 in 5.0 mi NW 5.8 mph - N/A   Drizzle
10:35 AM 69.8 °F 69.8 °F 100% 29.85 in 4.0 mi NW 5.8 mph - N/A   Drizzle
10:55 AM 69.8 °F 69.8 °F 100% 29.85 in 4.0 mi WNW 5.8 mph - N/A Rain Light Rain
11:15 AM 69.8 °F 69.8 °F 100% 29.85 in 4.0 mi NW 5.8 mph - N/A Rain Light Rain
11:35 AM 71.6 °F 69.8 °F 94% 29.85 in 5.0 mi NW 6.9 mph - N/A Rain Light Rain
11:55 AM 71.6 °F 69.8 °F 94% 29.84 in 7.0 mi NW 4.6 mph - N/A   Light Drizzle
12:15 PM 73.4 °F 68.0 °F 83% 29.84 in 10.0 mi North 5.8 mph - N/A   Clear
12:35 PM 75.2 °F 66.2 °F 73% 29.83 in 10.0 mi WNW 4.6 mph - N/A   Scattered Clouds
12:55 PM 75.2 °F 64.4 °F 69% 29.83 in 10.0 mi NW 6.9 mph - N/A   Scattered Clouds
1:15 PM 77.0 °F 62.6 °F 61% 29.83 in 10.0 mi NNW 6.9 mph - N/A   Scattered Clouds
1:35 PM 77.0 °F 62.6 °F 61% 29.83 in 10.0 mi North 8.1 mph - N/A   Mostly Cloudy
1:55 PM 77.0 °F 62.6 °F 61% 29.83 in 10.0 mi North 4.6 mph - N/A   Scattered Clouds
2:15 PM 77.0 °F 62.6 °F 61% 29.82 in 10.0 mi NNW 8.1 mph - N/A   Scattered Clouds
2:35 PM 78.8 °F 62.6 °F 57% 29.82 in 10.0 mi NW 6.9 mph - N/A   Mostly Cloudy
2:55 PM 78.8 °F 62.6 °F 57% 29.82 in 10.0 mi NW 4.6 mph - N/A   Overcast
3:15 PM 77.0 °F 62.6 °F 61% 29.81 in 10.0 mi Calm Calm - N/A   Overcast
3:35 PM 77.0 °F 64.4 °F 65% 29.82 in 10.0 mi NW 10.4 mph 16.1 mph N/A   Mostly Cloudy
3:55 PM 68.0 °F 66.2 °F 94% 29.83 in 0.8 mi WSW 6.9 mph 26.5 mph N/A Rain Heavy Rain
4:15 PM 68.0 °F 68.0 °F 100% 29.84 in 4.0 mi West 6.9 mph - N/A Rain Rain
4:35 PM 69.8 °F 69.8 °F 100% 29.84 in 5.0 mi Calm Calm - N/A   Overcast
4:55 PM 69.8 °F 68.0 °F 94% 29.84 in 7.0 mi Calm Calm - N/A   Mostly Cloudy
5:15 PM 73.4 °F 69.8 °F 88% 29.84 in 10.0 mi WNW 3.5 mph - N/A   Mostly Cloudy
5:35 PM 71.6 °F 69.8 °F 94% 29.84 in 7.0 mi Calm Calm - N/A   Scattered Clouds
5:55 PM 71.6 °F 69.8 °F 94% 29.83 in 7.0 mi Calm Calm - N/A   Clear
6:15 PM 71.6 °F 71.6 °F 100% 29.83 in 7.0 mi Calm Calm - N/A   Mostly Cloudy
6:35 PM 71.6 °F 69.8 °F 94% 29.84 in 7.0 mi Calm Calm - N/A   Mostly Cloudy
6:55 PM 71.6 °F 69.8 °F 94% 29.85 in 7.0 mi WNW 6.9 mph - N/A Rain Light Rain
7:15 PM 71.6 °F 69.8 °F 94% 29.85 in 7.0 mi Calm Calm - N/A   Overcast
7:35 PM 71.6 °F 68.0 °F 88% 29.85 in 10.0 mi Calm Calm - N/A   Mostly Cloudy
7:55 PM 69.8 °F 69.8 °F 100% 29.86 in 5.0 mi Calm Calm - N/A   Mostly Cloudy
8:15 PM 69.8 °F 69.8 °F 100% 29.87 in 7.0 mi Calm Calm - N/A   Mostly Cloudy
8:35 PM 68.0 °F 68.0 °F 100% 29.87 in 4.0 mi Calm Calm - N/A   Scattered Clouds
8:55 PM 68.0 °F 68.0 °F 100% 29.88 in 2.5 mi Calm Calm - N/A   Clear
9:15 PM 66.2 °F 66.2 °F 100% 29.88 in 2.5 mi WSW 4.6 mph - N/A   Scattered Clouds
9:35 PM 66.2 °F 66.2 °F 100% 29.89 in 2.0 mi Calm Calm - N/A   Clear
9:55 PM 64.4 °F 64.4 °F 100% 29.89 in 1.8 mi WSW 4.6 mph - N/A   Scattered Clouds
10:15 PM 66.2 °F 66.2 °F 100% 29.90 in 2.5 mi Calm Calm - N/A   Mostly Cloudy
10:35 PM 64.4 °F 64.4 °F 100% 29.90 in 2.5 mi Calm Calm - N/A   Overcast
10:55 PM 64.4 °F 64.4 °F 100% 29.91 in 1.8 mi Calm Calm - N/A   Overcast
11:15 PM 64.4 °F 64.4 °F 100% 29.91 in 2.0 mi Calm Calm - N/A   Mostly Cloudy
11:35 PM 64.4 °F 64.4 °F 100% 29.91 in 2.5 mi Calm Calm - N/A   Overcast
11:55 PM 64.4 °F 64.4 °F 100% 29.91 in 3.0 mi Calm Calm - N/A   Mostly Cloudy